Flag for Canada Weather past 2 weeks in Victoria, British Columbia, Canada

57 °F

Partly sunny.

Feels Like: 57 °F
Forecast: 46 / 55 °F
Wind: 5 mph from North

Location: Victoria Int. Airportb. C.

Current Time: Oct 13, 2015 at 12:38:22 PM

Latest Report: Oct 13, 2015 at 12:00 PM

Visibility: 20 mi

Pressure: 30.27 "Hg

Humidity: 82%

Dew point: 52 °F

Location of VictoriaLocation

Historic Weather in Victoria — Graph


Victoria temperature yesterday

Maximum temperature yesterday: 57 °F (at 4:00 PM)
Minimum temperature yesterday: 50 °F (at 3:00 AM)
Average temperature yesterday: 54 °F

Past Weeks' High & Low Weather Summary

High68 °F (Oct 3, 3:00 PM)100% (Sep 29, 12:00 AM)30.27 "Hg (Sep 29, 12:00 AM)
Low45 °F (Sep 29, 5:00 AM)33% (Oct 3, 3:00 PM)29.47 "Hg (Oct 10, 2:00 PM)
Average55 °F85%30.00 "Hg
* Reported Sep 28 11:00 AM — Oct 13 11:00 AM, Victoria, Weather by CustomWeather, © 2015

Note: Actual official high and low records may vary slightly from our data, if they occured in-between our weather recording intervals... More about our weather records


Victoria weather history for previous 24 hours

Time TempWeatherWind HumidityBarometerVisibility
11:00 AM
Tue, Oct 13
55 °FPassing clouds.7 mph82%30.27 "Hg20 mi
10:00 AM54 °FScattered clouds.5 mph94%30.27 "Hg15 mi
9:00 AM52 °FPartly sunny.2 mph94%30.25 "Hg8 mi
8:00 AM48 °FFog.5 mph100%30.22 "Hg12 mi
7:00 AM52 °FPassing clouds.8 mph94%30.21 "Hg12 mi
6:00 AM52 °FPassing clouds.8 mph94%30.20 "Hg8 mi
5:00 AM52 °FPassing clouds.9 mph94%30.18 "Hg8 mi
4:00 AM52 °FPassing clouds.7 mph94%30.18 "Hg8 mi
3:00 AM54 °FLow clouds.6 mph94%30.18 "Hg8 mi
2:00 AM54 °FFog.7 mph94%30.17 "Hg5 mi
1:00 AM54 °FFog.5 mph94%30.17 "Hg5 mi
12:00 AM54 °FFog.6 mph94%30.16 "Hg5 mi
11:00 PM
Mon, Oct 12
54 °FFog.7 mph100%30.16 "Hg5 mi
10:00 PM55 °FFog.6 mph94%30.15 "Hg5 mi
9:00 PM55 °FFog.5 mph94%30.14 "Hg5 mi
8:00 PM55 °FLight rain. Fog.2 mph94%30.14 "Hg5 mi
7:00 PM55 °FLight rain. Fog.5 mph94%30.12 "Hg5 mi
6:00 PM55 °FFog.2 mph100%30.11 "Hg5 mi
5:51 PM55 °FFog.3 mph100%30.10 "Hg5 mi
5:00 PM55 °FLight rain. Fog.5 mph100%30.09 "Hg5 mi
4:00 PM57 °FFog.6 mph94%30.08 "Hg5 mi
3:00 PM55 °FLight rain. Fog.No wind94%30.07 "Hg4 mi
2:00 PM55 °FLight rain. Fog.5 mph94%30.07 "Hg3 mi
1:00 PM55 °FLight rain. Fog.2 mph94%30.07 "Hg3 mi
12:00 PM54 °FLight rain. Fog.No wind94%30.06 "Hg4 mi
Weather by CustomWeather, © 2015

See weather overviewHow to use our weather pages